Time,TemperatureF,DewpointF,PressureIn,WindDirection,WindDirectionDegrees,WindSpeedMPH,WindSpeedGustMPH,Humidity,HourlyPrecipIn,Conditions,Clouds,dailyrainin,SoftwareType,DateUTC
2013-02-06 00:00:00,69.9,68.1,29.89,SE,141,0.0,0.0,94,0.00,,---,0.00,VWS V14.00,2013-02-06 06:00:00,
2013-02-06 00:05:00,69.9,68.1,29.89,SE,141,0.0,0.0,94,0.00,,---,0.00,VWS V14.00,2013-02-06 06:05:00,
2013-02-06 00:10:00,69.9,68.1,29.90,SE,141,0.0,0.0,94,0.00,,---,0.00,VWS V14.00,2013-02-06 06:10:00,
2013-02-06 00:15:00,70.0,68.2,29.90,SE,141,0.0,0.0,94,0.00,,---,0.00,VWS V14.00,2013-02-06 06:15:00,
2013-02-06 00:20:00,70.0,68.2,29.90,SE,141,0.0,0.0,94,0.00,,---,0.00,VWS V14.00,2013-02-06 06:20:00,
2013-02-06 00:25:00,70.0,68.2,29.90,SE,141,0.0,0.0,94,0.00,,---,0.00,VWS V14.00,2013-02-06 06:25:00,
2013-02-06 00:30:00,70.1,68.3,29.91,SE,141,0.0,0.0,94,0.01,,---,0.01,VWS V14.00,2013-02-06 06:30:00,
2013-02-06 00:35:00,70.2,68.4,29.93,SE,141,0.0,0.0,94,0.01,,---,0.01,VWS V14.00,2013-02-06 06:35:00,
2013-02-06 00:40:00,70.3,68.5,29.94,SE,141,0.0,0.0,94,0.01,,---,0.01,VWS V14.00,2013-02-06 06:40:00,
2013-02-06 00:45:00,70.6,68.8,29.94,SSE,167,9.0,11.0,94,0.04,,---,0.04,VWS V14.00,2013-02-06 06:45:00,
2013-02-06 00:50:00,70.5,68.7,29.95,South,172,8.0,10.0,94,0.05,,---,0.05,VWS V14.00,2013-02-06 06:50:00,
2013-02-06 00:55:00,70.5,68.7,29.94,South,172,7.0,7.0,94,0.07,,---,0.07,VWS V14.00,2013-02-06 06:55:00,
2013-02-06 01:00:00,70.4,68.9,29.93,South,172,7.0,8.0,95,0.07,,---,0.07,VWS V14.00,2013-02-06 07:00:00,
2013-02-06 01:05:00,70.4,68.9,29.92,South,172,5.0,7.0,95,0.08,,---,0.08,VWS V14.00,2013-02-06 07:05:00,
2013-02-06 01:10:00,70.3,68.8,29.90,South,172,5.0,5.0,95,0.08,,---,0.08,VWS V14.00,2013-02-06 07:10:00,
2013-02-06 01:15:00,70.2,68.7,29.89,South,172,6.0,8.0,95,0.08,,---,0.08,VWS V14.00,2013-02-06 07:15:00,
2013-02-06 01:20:00,70.2,68.7,29.87,South,172,9.0,9.0,95,0.08,,---,0.08,VWS V14.00,2013-02-06 07:20:00,
2013-02-06 01:25:00,70.1,68.6,29.87,SE,142,6.0,9.0,95,0.08,,---,0.08,VWS V14.00,2013-02-06 07:25:00,
2013-02-06 01:30:00,70.1,68.6,29.89,SE,143,0.0,0.0,95,0.08,,---,0.09,VWS V14.00,2013-02-06 07:30:00,
2013-02-06 01:35:00,70.1,68.6,29.89,SE,143,0.0,0.0,95,0.08,,---,0.09,VWS V14.00,2013-02-06 07:35:00,
2013-02-06 01:40:00,70.1,68.6,29.89,SE,143,0.0,0.0,95,0.08,,---,0.09,VWS V14.00,2013-02-06 07:40:00,
2013-02-06 01:45:00,70.1,68.6,29.90,SE,142,0.0,0.0,95,0.06,,---,0.09,VWS V14.00,2013-02-06 07:45:00,
2013-02-06 01:50:00,70.1,68.6,29.90,SE,143,0.0,0.0,95,0.04,,---,0.09,VWS V14.00,2013-02-06 07:50:00,
2013-02-06 01:55:00,70.2,68.7,29.90,SE,143,0.0,0.0,95,0.02,,---,0.09,VWS V14.00,2013-02-06 07:55:00,
2013-02-06 02:00:00,70.2,68.7,29.90,SE,143,0.0,0.0,95,0.02,,---,0.09,VWS V14.00,2013-02-06 08:00:00,
2013-02-06 02:05:00,70.1,68.6,29.90,SE,143,0.0,0.0,95,0.01,,---,0.09,VWS V14.00,2013-02-06 08:05:00,
2013-02-06 02:10:00,70.2,68.7,29.90,SE,142,0.0,0.0,95,0.01,,---,0.09,VWS V14.00,2013-02-06 08:10:00,
2013-02-06 02:15:00,70.1,68.6,29.89,SE,143,7.0,7.0,95,0.01,,---,0.09,VWS V14.00,2013-02-06 08:15:00,
2013-02-06 02:20:00,70.0,68.5,29.89,SE,143,6.0,7.0,95,0.01,,---,0.09,VWS V14.00,2013-02-06 08:20:00,
2013-02-06 02:25:00,69.9,68.4,29.89,SE,142,7.0,7.0,95,0.01,,---,0.09,VWS V14.00,2013-02-06 08:25:00,
2013-02-06 02:30:00,69.8,68.3,29.89,SE,143,8.0,9.0,95,0.00,,---,0.09,VWS V14.00,2013-02-06 08:30:00,
2013-02-06 02:35:00,69.7,68.5,29.88,SE,142,8.0,10.0,96,0.00,,---,0.09,VWS V14.00,2013-02-06 08:35:00,
2013-02-06 02:40:00,69.6,68.4,29.88,SE,142,10.0,11.0,96,0.00,,---,0.09,VWS V14.00,2013-02-06 08:40:00,
2013-02-06 02:45:00,69.4,68.2,29.88,ESE,104,12.0,14.0,96,0.00,,---,0.09,VWS V14.00,2013-02-06 08:45:00,
2013-02-06 02:50:00,68.9,67.7,29.88,East,94,12.0,12.0,96,0.00,,---,0.09,VWS V14.00,2013-02-06 08:50:00,
2013-02-06 02:55:00,68.4,67.2,29.87,East,94,9.0,12.0,96,0.00,,---,0.09,VWS V14.00,2013-02-06 08:55:00,
2013-02-06 03:00:00,68.5,67.3,29.87,East,94,9.0,9.0,96,0.00,,---,0.09,VWS V14.00,2013-02-06 09:00:00,
2013-02-06 03:05:00,68.7,67.5,29.87,East,94,8.0,9.0,96,0.00,,---,0.09,VWS V14.00,2013-02-06 09:05:00,
2013-02-06 03:10:00,68.9,67.7,29.86,East,94,8.0,8.0,96,0.00,,---,0.09,VWS V14.00,2013-02-06 09:10:00,
2013-02-06 03:15:00,69.2,68.0,29.86,East,94,9.0,11.0,96,0.00,,---,0.09,VWS V14.00,2013-02-06 09:15:00,
2013-02-06 03:20:00,69.0,67.8,29.86,East,94,8.0,9.0,96,0.00,,---,0.09,VWS V14.00,2013-02-06 09:20:00,
2013-02-06 03:25:00,69.0,67.8,29.86,East,94,8.0,9.0,96,0.00,,---,0.09,VWS V14.00,2013-02-06 09:25:00,
2013-02-06 03:30:00,68.9,67.7,29.86,East,94,11.0,12.0,96,0.00,,---,0.09,VWS V14.00,2013-02-06 09:30:00,
2013-02-06 03:35:00,68.6,67.4,29.86,East,94,8.0,11.0,96,0.00,,---,0.09,VWS V14.00,2013-02-06 09:35:00,
2013-02-06 03:40:00,68.1,66.9,29.86,East,94,8.0,11.0,96,0.00,,---,0.09,VWS V14.00,2013-02-06 09:40:00,
2013-02-06 03:45:00,67.7,66.5,29.85,East,94,11.0,11.0,96,0.00,,---,0.09,VWS V14.00,2013-02-06 09:45:00,
2013-02-06 03:50:00,67.4,66.2,29.86,East,94,9.0,12.0,96,0.00,,---,0.09,VWS V14.00,2013-02-06 09:50:00,
2013-02-06 03:55:00,67.3,66.1,29.86,East,94,8.0,9.0,96,0.00,,---,0.09,VWS V14.00,2013-02-06 09:55:00,
2013-02-06 04:00:00,67.3,66.1,29.86,East,94,7.0,9.0,96,0.00,,---,0.09,VWS V14.00,2013-02-06 10:00:00,
2013-02-06 04:05:00,67.6,66.4,29.87,East,94,5.0,5.0,96,0.00,,---,0.09,VWS V14.00,2013-02-06 10:05:00,
2013-02-06 04:10:00,67.8,66.6,29.86,East,94,0.0,0.0,96,0.00,,---,0.09,VWS V14.00,2013-02-06 10:10:00,
2013-02-06 04:15:00,68.1,66.9,29.86,East,94,5.0,6.0,96,0.00,,---,0.09,VWS V14.00,2013-02-06 10:15:00,
2013-02-06 04:20:00,68.8,67.6,29.86,East,94,5.0,7.0,96,0.00,,---,0.09,VWS V14.00,2013-02-06 10:20:00,
2013-02-06 04:25:00,69.0,67.8,29.86,East,94,4.0,7.0,96,0.00,,---,0.09,VWS V14.00,2013-02-06 10:25:00,
2013-02-06 04:30:00,69.2,68.0,29.86,East,94,4.0,6.0,96,0.00,,---,0.09,VWS V14.00,2013-02-06 10:30:00,
2013-02-06 04:35:00,69.3,68.1,29.87,East,94,6.0,7.0,96,0.00,,---,0.09,VWS V14.00,2013-02-06 10:35:00,
2013-02-06 04:40:00,69.3,68.1,29.87,East,94,5.0,6.0,96,0.00,,---,0.09,VWS V14.00,2013-02-06 10:40:00,
2013-02-06 04:45:00,69.4,68.2,29.87,East,94,7.0,8.0,96,0.00,,---,0.09,VWS V14.00,2013-02-06 10:45:00,
2013-02-06 04:50:00,69.4,68.2,29.87,East,94,7.0,7.0,96,0.00,,---,0.09,VWS V14.00,2013-02-06 10:50:00,
2013-02-06 04:55:00,69.4,68.2,29.88,East,94,7.0,7.0,96,0.00,,---,0.09,VWS V14.00,2013-02-06 10:55:00,
2013-02-06 05:00:00,69.4,68.2,29.88,East,94,4.0,6.0,96,0.00,,---,0.09,VWS V14.00,2013-02-06 11:00:00,
2013-02-06 05:05:00,69.4,68.2,29.88,East,94,4.0,5.0,96,0.00,,---,0.09,VWS V14.00,2013-02-06 11:05:00,
2013-02-06 05:10:00,69.4,68.2,29.89,East,94,4.0,4.0,96,0.00,,---,0.09,VWS V14.00,2013-02-06 11:10:00,
2013-02-06 05:15:00,69.4,68.2,29.88,East,94,4.0,6.0,96,0.00,,---,0.09,VWS V14.00,2013-02-06 11:15:00,
2013-02-06 05:20:00,69.4,68.2,29.89,East,94,6.0,6.0,96,0.00,,---,0.09,VWS V14.00,2013-02-06 11:20:00,
2013-02-06 05:25:00,69.4,68.2,29.89,East,94,0.0,6.0,96,0.00,,---,0.09,VWS V14.00,2013-02-06 11:25:00,
2013-02-06 05:30:00,69.4,68.2,29.89,East,94,0.0,0.0,96,0.00,,---,0.09,VWS V14.00,2013-02-06 11:30:00,
2013-02-06 05:35:00,69.3,68.1,29.88,East,94,0.0,0.0,96,0.00,,---,0.09,VWS V14.00,2013-02-06 11:35:00,
2013-02-06 05:40:00,69.3,68.1,29.89,East,94,0.0,0.0,96,0.00,,---,0.09,VWS V14.00,2013-02-06 11:40:00,
2013-02-06 05:45:00,69.3,68.1,29.89,East,94,0.0,0.0,96,0.00,,---,0.09,VWS V14.00,2013-02-06 11:45:00,
2013-02-06 05:50:00,69.3,68.1,29.89,East,94,0.0,0.0,96,0.00,,---,0.09,VWS V14.00,2013-02-06 11:50:00,
2013-02-06 05:55:00,68.0,66.8,29.88,East,94,6.0,8.0,96,0.00,,---,0.09,VWS V14.00,2013-02-06 11:55:00,
2013-02-06 06:00:00,67.6,66.4,29.88,East,94,7.0,8.0,96,0.00,,---,0.09,VWS V14.00,2013-02-06 12:00:00,
2013-02-06 06:05:00,67.4,66.2,29.88,East,94,8.0,8.0,96,0.00,,---,0.09,VWS V14.00,2013-02-06 12:05:00,
2013-02-06 06:10:00,67.2,66.0,29.88,East,94,8.0,9.0,96,0.00,,---,0.09,VWS V14.00,2013-02-06 12:10:00,
2013-02-06 06:15:00,67.0,65.8,29.88,East,94,6.0,8.0,96,0.00,,---,0.09,VWS V14.00,2013-02-06 12:15:00,
2013-02-06 06:20:00,67.0,66.1,29.88,East,94,7.0,11.0,97,0.00,,---,0.09,VWS V14.00,2013-02-06 12:20:00,
2013-02-06 06:25:00,67.0,66.1,29.88,East,94,9.0,9.0,97,0.00,,---,0.09,VWS V14.00,2013-02-06 12:25:00,
2013-02-06 06:30:00,67.0,65.8,29.88,East,94,8.0,11.0,96,0.00,,---,0.09,VWS V14.00,2013-02-06 12:30:00,
2013-02-06 06:35:00,67.0,65.8,29.87,East,94,11.0,11.0,96,0.00,,---,0.09,VWS V14.00,2013-02-06 12:35:00,
2013-02-06 06:40:00,67.0,66.1,29.87,East,94,0.0,0.0,97,0.00,,---,0.09,VWS V14.00,2013-02-06 12:40:00,
2013-02-06 06:45:00,67.0,65.8,29.87,East,94,0.0,0.0,96,0.00,,---,0.09,VWS V14.00,2013-02-06 12:45:00,
2013-02-06 06:50:00,67.4,66.5,29.87,East,94,6.0,8.0,97,0.00,,---,0.09,VWS V14.00,2013-02-06 12:50:00,
2013-02-06 06:55:00,67.6,66.7,29.87,East,94,8.0,8.0,97,0.01,,---,0.10,VWS V14.00,2013-02-06 12:55:00,
2013-02-06 07:00:00,67.6,66.7,29.87,East,94,11.0,15.0,97,0.01,,---,0.10,VWS V14.00,2013-02-06 13:00:00,
2013-02-06 07:05:00,67.5,66.6,29.86,East,94,11.0,11.0,97,0.01,,---,0.10,VWS V14.00,2013-02-06 13:05:00,
2013-02-06 07:10:00,67.6,66.7,29.86,East,94,9.0,11.0,97,0.01,,---,0.10,VWS V14.00,2013-02-06 13:10:00,
2013-02-06 07:15:00,67.7,66.8,29.86,East,94,9.0,11.0,97,0.01,,---,0.10,VWS V14.00,2013-02-06 13:15:00,
2013-02-06 07:20:00,68.0,67.1,29.87,East,94,8.0,9.0,97,0.01,,---,0.10,VWS V14.00,2013-02-06 13:20:00,
2013-02-06 07:25:00,68.5,67.6,29.87,East,94,13.0,15.0,97,0.01,,---,0.10,VWS V14.00,2013-02-06 13:25:00,
2013-02-06 07:30:00,68.7,67.8,29.87,East,94,9.0,13.0,97,0.01,,---,0.10,VWS V14.00,2013-02-06 13:30:00,
2013-02-06 07:35:00,68.7,67.8,29.86,East,94,9.0,12.0,97,0.01,,---,0.10,VWS V14.00,2013-02-06 13:35:00,
2013-02-06 07:40:00,68.6,67.7,29.86,East,94,13.0,15.0,97,0.01,,---,0.10,VWS V14.00,2013-02-06 13:40:00,
2013-02-06 07:45:00,68.6,67.7,29.86,East,94,11.0,13.0,97,0.01,,---,0.10,VWS V14.00,2013-02-06 13:45:00,
2013-02-06 07:50:00,68.6,67.7,29.86,East,94,8.0,11.0,97,0.01,,---,0.10,VWS V14.00,2013-02-06 13:50:00,
2013-02-06 07:55:00,68.6,67.7,29.85,East,94,9.0,13.0,97,0.00,,---,0.10,VWS V14.00,2013-02-06 13:55:00,
2013-02-06 08:00:00,68.7,67.8,29.85,East,101,12.0,13.0,97,0.07,,---,0.17,VWS V14.00,2013-02-06 14:00:00,
2013-02-06 08:05:00,68.7,67.8,29.85,ESE,105,11.0,13.0,97,0.07,,---,0.17,VWS V14.00,2013-02-06 14:05:00,
2013-02-06 08:10:00,68.8,67.9,29.85,ESE,106,14.0,16.0,97,0.07,,---,0.17,VWS V14.00,2013-02-06 14:10:00,
2013-02-06 08:15:00,69.0,68.1,29.84,ESE,113,14.0,16.0,97,0.07,,---,0.17,VWS V14.00,2013-02-06 14:15:00,
2013-02-06 08:20:00,69.1,68.2,29.85,ESE,106,12.0,15.0,97,0.07,,---,0.17,VWS V14.00,2013-02-06 14:20:00,
2013-02-06 08:25:00,69.2,68.3,29.84,ESE,113,14.0,16.0,97,0.07,,---,0.17,VWS V14.00,2013-02-06 14:25:00,
2013-02-06 08:30:00,69.3,68.4,29.84,ESE,117,13.0,15.0,97,0.07,,---,0.17,VWS V14.00,2013-02-06 14:30:00,
2013-02-06 08:35:00,69.5,68.6,29.84,ESE,121,17.0,17.0,97,0.07,,---,0.17,VWS V14.00,2013-02-06 14:35:00,
2013-02-06 08:40:00,69.7,68.8,29.83,SE,128,15.0,16.0,97,0.07,,---,0.17,VWS V14.00,2013-02-06 14:40:00,
2013-02-06 08:45:00,69.8,68.9,29.83,ESE,123,13.0,18.0,97,0.07,,---,0.17,VWS V14.00,2013-02-06 14:45:00,
2013-02-06 08:50:00,69.8,68.9,29.83,SE,130,17.0,18.0,97,0.07,,---,0.17,VWS V14.00,2013-02-06 14:50:00,
2013-02-06 08:55:00,69.8,68.9,29.84,SE,135,13.0,13.0,97,0.07,,---,0.17,VWS V14.00,2013-02-06 14:55:00,
2013-02-06 09:00:00,69.8,68.9,29.84,SE,144,10.0,13.0,97,0.01,,---,0.17,VWS V14.00,2013-02-06 15:00:00,
2013-02-06 09:05:00,69.8,68.9,29.84,SE,144,9.0,11.0,97,0.00,,---,0.17,VWS V14.00,2013-02-06 15:05:00,
2013-02-06 09:10:00,69.9,69.0,29.85,SE,145,10.0,12.0,97,0.00,,---,0.17,VWS V14.00,2013-02-06 15:10:00,
2013-02-06 09:15:00,69.9,69.0,29.86,SE,145,6.0,8.0,97,0.00,,---,0.17,VWS V14.00,2013-02-06 15:15:00,
2013-02-06 09:20:00,69.8,68.9,29.86,SE,145,7.0,10.0,97,0.00,,---,0.17,VWS V14.00,2013-02-06 15:20:00,
2013-02-06 09:25:00,69.6,68.7,29.86,SSE,154,7.0,9.0,97,0.00,,---,0.17,VWS V14.00,2013-02-06 15:25:00,
2013-02-06 09:30:00,69.5,68.6,29.87,SSE,154,9.0,9.0,97,0.01,,---,0.18,VWS V14.00,2013-02-06 15:30:00,
2013-02-06 09:35:00,69.6,68.7,29.88,SSE,154,0.0,0.0,97,0.02,,---,0.19,VWS V14.00,2013-02-06 15:35:00,
2013-02-06 09:40:00,69.8,68.9,29.89,SSE,154,6.0,8.0,97,0.02,,---,0.19,VWS V14.00,2013-02-06 15:40:00,
2013-02-06 09:45:00,68.2,66.7,29.89,South,171,0.0,0.0,95,0.02,,---,0.19,VWS V14.00,2013-02-06 15:45:00,
2013-02-06 09:50:00,66.9,65.7,29.89,SSE,164,12.0,12.0,96,0.02,,---,0.19,VWS V14.00,2013-02-06 15:50:00,
2013-02-06 09:55:00,66.2,65.0,29.89,NNE,32,5.0,7.0,96,0.02,,---,0.19,VWS V14.00,2013-02-06 15:55:00,
2013-02-06 10:00:00,66.1,65.2,29.90,NNE,32,2.0,10.0,97,0.02,,---,0.19,VWS V14.00,2013-02-06 16:00:00,
2013-02-06 10:05:00,65.9,65.0,29.89,NNE,28,8.0,10.0,97,0.02,,---,0.19,VWS V14.00,2013-02-06 16:05:00,
2013-02-06 10:10:00,65.6,64.4,29.90,NNE,28,0.0,0.0,96,0.03,,---,0.20,VWS V14.00,2013-02-06 16:10:00,
2013-02-06 10:15:00,65.0,63.8,29.90,NNE,28,0.0,4.0,96,0.03,,---,0.20,VWS V14.00,2013-02-06 16:15:00,
2013-02-06 10:20:00,64.6,63.7,29.89,NNE,16,0.0,0.0,97,0.03,,---,0.20,VWS V14.00,2013-02-06 16:20:00,
2013-02-06 10:25:00,64.5,63.6,29.89,NNE,16,0.0,0.0,97,0.03,,---,0.20,VWS V14.00,2013-02-06 16:25:00,
2013-02-06 10:30:00,64.6,63.7,29.89,NNE,16,6.0,6.0,97,0.02,,---,0.20,VWS V14.00,2013-02-06 16:30:00,
2013-02-06 10:35:00,64.5,63.6,29.89,NNE,16,0.0,0.0,97,0.04,,---,0.23,VWS V14.00,2013-02-06 16:35:00,
2013-02-06 10:40:00,64.2,63.3,29.88,NNE,16,0.0,6.0,97,0.05,,---,0.24,VWS V14.00,2013-02-06 16:40:00,
2013-02-06 10:45:00,64.0,63.1,29.88,NNE,16,5.0,7.0,97,0.05,,---,0.24,VWS V14.00,2013-02-06 16:45:00,
2013-02-06 10:50:00,63.8,62.9,29.88,NNE,16,2.0,11.0,97,0.06,,---,0.25,VWS V14.00,2013-02-06 16:50:00,
2013-02-06 10:55:00,63.7,62.8,29.88,NNE,16,4.0,6.0,97,0.06,,---,0.25,VWS V14.00,2013-02-06 16:55:00,
2013-02-06 11:00:00,63.6,62.7,29.88,NNE,16,9.0,9.0,97,0.07,,---,0.26,VWS V14.00,2013-02-06 17:00:00,
2013-02-06 11:05:00,63.5,62.6,29.88,NNE,16,12.0,16.0,97,0.10,,---,0.29,VWS V14.00,2013-02-06 17:05:00,
2013-02-06 11:10:00,63.4,62.5,29.88,NNE,22,15.0,16.0,97,0.12,,---,0.32,VWS V14.00,2013-02-06 17:10:00,
2013-02-06 11:15:00,63.3,62.4,29.88,NNE,22,12.0,12.0,97,0.13,,---,0.33,VWS V14.00,2013-02-06 17:15:00,
2013-02-06 11:20:00,63.4,62.5,29.88,NNE,26,9.0,13.0,97,0.13,,---,0.33,VWS V14.00,2013-02-06 17:20:00,
2013-02-06 11:25:00,63.6,62.7,29.87,NNE,19,12.0,16.0,97,0.14,,---,0.34,VWS V14.00,2013-02-06 17:25:00,
2013-02-06 11:30:00,64.0,63.1,29.87,NNE,33,16.0,19.0,97,0.14,,---,0.34,VWS V14.00,2013-02-06 17:30:00,
2013-02-06 11:35:00,64.5,63.6,29.86,NNE,27,14.0,17.0,97,0.11,,---,0.34,VWS V14.00,2013-02-06 17:35:00,
2013-02-06 11:40:00,64.9,64.0,29.86,NE,36,14.0,18.0,97,0.10,,---,0.34,VWS V14.00,2013-02-06 17:40:00,
2013-02-06 11:45:00,64.7,63.8,29.86,NNE,30,13.0,15.0,97,0.10,,---,0.34,VWS V14.00,2013-02-06 17:45:00,
2013-02-06 11:50:00,64.7,63.8,29.86,NE,37,17.0,19.0,97,0.09,,---,0.34,VWS V14.00,2013-02-06 17:50:00,
2013-02-06 11:55:00,64.6,63.7,29.85,NE,38,17.0,18.0,97,0.09,,---,0.34,VWS V14.00,2013-02-06 17:55:00,
2013-02-06 12:00:00,64.8,63.9,29.85,NE,34,21.0,21.0,97,0.08,,---,0.34,VWS V14.00,2013-02-06 18:00:00,
2013-02-06 12:05:00,64.7,63.8,29.85,NE,36,18.0,20.0,97,0.05,,---,0.34,VWS V14.00,2013-02-06 18:05:00,
2013-02-06 12:10:00,64.7,63.8,29.85,NE,34,18.0,19.0,97,0.03,,---,0.34,VWS V14.00,2013-02-06 18:10:00,
2013-02-06 12:15:00,64.7,63.8,29.85,NNE,30,16.0,17.0,97,0.02,,---,0.35,VWS V14.00,2013-02-06 18:15:00,
2013-02-06 12:20:00,64.8,63.9,29.84,NNE,30,16.0,19.0,97,0.03,,---,0.36,VWS V14.00,2013-02-06 18:20:00,
2013-02-06 12:25:00,64.7,63.8,29.84,NNE,28,17.0,17.0,97,0.02,,---,0.36,VWS V14.00,2013-02-06 18:25:00,
2013-02-06 12:37:00,64.5,63.6,29.83,NE,42,13.0,16.0,97,0.05,,---,0.39,VWS V14.00,2013-02-06 18:37:00,
2013-02-06 12:42:00,64.1,63.2,29.83,NE,48,20.0,20.0,97,0.06,,---,0.40,VWS V14.00,2013-02-06 18:42:00,
2013-02-06 12:47:00,64.4,63.5,29.82,NE,34,13.0,17.0,97,0.09,,---,0.43,VWS V14.00,2013-02-06 18:47:00,
2013-02-06 12:52:00,64.4,63.5,29.82,NE,38,19.0,20.0,97,0.09,,---,0.43,VWS V14.00,2013-02-06 18:52:00,
2013-02-06 12:57:00,65.0,64.1,29.82,NE,37,14.0,19.0,97,0.09,,---,0.43,VWS V14.00,2013-02-06 18:57:00,
2013-02-06 13:02:00,66.3,65.4,29.82,NE,44,16.0,19.0,97,0.09,,---,0.43,VWS V14.00,2013-02-06 19:02:00,
2013-02-06 13:07:00,67.0,66.1,29.81,NE,35,18.0,20.0,97,0.09,,---,0.43,VWS V14.00,2013-02-06 19:07:00,
2013-02-06 13:12:00,67.0,66.1,29.81,NE,38,20.0,24.0,97,0.08,,---,0.43,VWS V14.00,2013-02-06 19:12:00,
2013-02-06 13:17:00,67.4,66.5,29.81,NE,35,23.0,23.0,97,0.08,,---,0.43,VWS V14.00,2013-02-06 19:17:00,
2013-02-06 13:22:00,67.6,66.4,29.80,NE,42,22.0,23.0,96,0.07,,---,0.43,VWS V14.00,2013-02-06 19:22:00,
2013-02-06 13:27:00,67.7,66.5,29.80,NE,40,20.0,21.0,96,0.07,,---,0.43,VWS V14.00,2013-02-06 19:27:00,
2013-02-06 13:32:00,68.0,66.8,29.80,NE,48,16.0,22.0,96,0.05,,---,0.43,VWS V14.00,2013-02-06 19:32:00,
2013-02-06 13:37:00,67.7,66.2,29.81,NE,55,18.0,22.0,95,0.04,,---,0.43,VWS V14.00,2013-02-06 19:37:00,
2013-02-06 13:42:00,68.5,67.0,29.80,NNE,32,22.0,26.0,95,0.04,,---,0.43,VWS V14.00,2013-02-06 19:42:00,
2013-02-06 13:47:00,67.9,66.1,29.80,NNE,32,22.0,22.0,94,0.01,,---,0.43,VWS V14.00,2013-02-06 19:47:00,
2013-02-06 13:52:00,68.0,66.5,29.80,NE,53,17.0,19.0,95,0.00,,---,0.43,VWS V14.00,2013-02-06 19:52:00,
2013-02-06 13:57:00,67.6,65.5,29.79,NE,55,20.0,22.0,93,0.00,,---,0.43,VWS V14.00,2013-02-06 19:57:00,
2013-02-06 14:02:00,67.6,65.5,29.79,NE,52,18.0,21.0,93,0.00,,---,0.43,VWS V14.00,2013-02-06 20:02:00,
2013-02-06 14:07:00,67.7,65.6,29.79,NE,51,17.0,19.0,93,0.00,,---,0.43,VWS V14.00,2013-02-06 20:07:00,
2013-02-06 14:12:00,67.8,65.4,29.79,ENE,59,19.0,21.0,92,0.00,,---,0.43,VWS V14.00,2013-02-06 20:12:00,
2013-02-06 14:17:00,67.9,65.8,29.79,ENE,57,19.0,21.0,93,0.00,,---,0.43,VWS V14.00,2013-02-06 20:17:00,
2013-02-06 14:22:00,67.9,65.5,29.79,NE,54,18.0,20.0,92,0.00,,---,0.43,VWS V14.00,2013-02-06 20:22:00,
2013-02-06 14:27:00,67.7,65.0,29.79,ENE,57,20.0,20.0,91,0.00,,---,0.43,VWS V14.00,2013-02-06 20:27:00,
2013-02-06 14:32:00,67.7,65.0,29.79,ENE,57,15.0,19.0,91,0.00,,---,0.43,VWS V14.00,2013-02-06 20:32:00,
2013-02-06 14:37:00,67.4,64.4,29.79,NE,53,17.0,20.0,90,0.00,,---,0.43,VWS V14.00,2013-02-06 20:37:00,
2013-02-06 14:42:00,67.2,63.8,29.79,ENE,61,18.0,19.0,89,0.00,,---,0.43,VWS V14.00,2013-02-06 20:42:00,
2013-02-06 14:47:00,67.3,64.3,29.78,ENE,69,15.0,19.0,90,0.00,,---,0.43,VWS V14.00,2013-02-06 20:47:00,
2013-02-06 14:52:00,67.3,64.3,29.79,ENE,59,10.0,17.0,90,0.00,,---,0.43,VWS V14.00,2013-02-06 20:52:00,
2013-02-06 14:57:00,67.1,64.1,29.79,NE,50,19.0,19.0,90,0.00,,---,0.43,VWS V14.00,2013-02-06 20:57:00,
2013-02-06 15:02:00,66.8,63.5,29.78,ENE,63,20.0,20.0,89,0.00,,---,0.43,VWS V14.00,2013-02-06 21:02:00,
2013-02-06 15:07:00,66.9,63.6,29.78,ENE,75,15.0,20.0,89,0.00,,---,0.43,VWS V14.00,2013-02-06 21:07:00,
2013-02-06 15:12:00,66.9,63.6,29.78,ENE,58,16.0,18.0,89,0.00,,---,0.43,VWS V14.00,2013-02-06 21:12:00,
2013-02-06 15:17:00,66.9,63.6,29.78,NE,55,15.0,18.0,89,0.00,,---,0.43,VWS V14.00,2013-02-06 21:17:00,
2013-02-06 15:22:00,67.0,63.7,29.77,ENE,62,14.0,17.0,89,0.00,,---,0.43,VWS V14.00,2013-02-06 21:22:00,
2013-02-06 15:27:00,67.0,63.7,29.77,ENE,78,17.0,17.0,89,0.00,,---,0.43,VWS V14.00,2013-02-06 21:27:00,
2013-02-06 15:32:00,67.0,63.7,29.77,ENE,68,14.0,18.0,89,0.00,,---,0.43,VWS V14.00,2013-02-06 21:32:00,
2013-02-06 15:37:00,67.1,64.1,29.77,ENE,69,19.0,20.0,90,0.00,,---,0.43,VWS V14.00,2013-02-06 21:37:00,
2013-02-06 15:42:00,67.0,63.7,29.76,ENE,67,20.0,20.0,89,0.00,,---,0.43,VWS V14.00,2013-02-06 21:42:00,
2013-02-06 15:47:00,67.2,63.8,29.76,ENE,69,14.0,18.0,89,0.00,,---,0.43,VWS V14.00,2013-02-06 21:47:00,
2013-02-06 15:52:00,67.1,63.8,29.76,ENE,61,12.0,18.0,89,0.00,,---,0.43,VWS V14.00,2013-02-06 21:52:00,
2013-02-06 15:57:00,67.0,63.7,29.76,ENE,64,15.0,21.0,89,0.00,,---,0.43,VWS V14.00,2013-02-06 21:57:00,
2013-02-06 16:02:00,67.0,63.7,29.76,ENE,61,13.0,17.0,89,0.00,,---,0.43,VWS V14.00,2013-02-06 22:02:00,
2013-02-06 16:07:00,67.2,64.2,29.76,ENE,64,11.0,16.0,90,0.00,,---,0.43,VWS V14.00,2013-02-06 22:07:00,
2013-02-06 16:12:00,67.1,64.1,29.76,ENE,65,13.0,20.0,90,0.00,,---,0.43,VWS V14.00,2013-02-06 22:12:00,
2013-02-06 16:17:00,67.0,64.0,29.76,NE,55,17.0,20.0,90,0.00,,---,0.43,VWS V14.00,2013-02-06 22:17:00,
2013-02-06 16:22:00,67.1,64.1,29.76,ENE,61,23.0,23.0,90,0.00,,---,0.43,VWS V14.00,2013-02-06 22:22:00,
2013-02-06 16:27:00,67.1,64.1,29.76,ENE,70,19.0,19.0,90,0.00,,---,0.43,VWS V14.00,2013-02-06 22:27:00,
2013-02-06 16:32:00,67.1,64.4,29.76,ENE,61,13.0,19.0,91,0.00,,---,0.43,VWS V14.00,2013-02-06 22:32:00,
2013-02-06 16:37:00,67.1,64.4,29.76,ENE,68,15.0,21.0,91,0.00,,---,0.43,VWS V14.00,2013-02-06 22:37:00,
2013-02-06 16:42:00,67.1,64.4,29.76,ENE,67,13.0,18.0,91,0.00,,---,0.43,VWS V14.00,2013-02-06 22:42:00,
2013-02-06 16:47:00,67.2,64.8,29.76,ENE,64,14.0,17.0,92,0.00,,---,0.43,VWS V14.00,2013-02-06 22:47:00,
2013-02-06 16:52:00,67.2,64.8,29.77,NE,55,16.0,20.0,92,0.00,,---,0.43,VWS V14.00,2013-02-06 22:52:00,
2013-02-06 16:57:00,67.2,64.8,29.77,ENE,63,17.0,21.0,92,0.00,,---,0.43,VWS V14.00,2013-02-06 22:57:00,
2013-02-06 17:02:00,67.2,64.5,29.77,ENE,61,17.0,18.0,91,0.00,,---,0.43,VWS V14.00,2013-02-06 23:02:00,
2013-02-06 17:07:00,67.5,65.1,29.77,NE,50,13.0,15.0,92,0.00,,---,0.43,VWS V14.00,2013-02-06 23:07:00,
2013-02-06 17:12:00,67.3,64.9,29.78,ENE,62,14.0,18.0,92,0.00,,---,0.43,VWS V14.00,2013-02-06 23:12:00,
2013-02-06 17:17:00,67.2,64.8,29.78,ENE,60,14.0,20.0,92,0.00,,---,0.43,VWS V14.00,2013-02-06 23:17:00,
2013-02-06 17:22:00,67.2,64.8,29.78,ENE,67,13.0,17.0,92,0.00,,---,0.43,VWS V14.00,2013-02-06 23:22:00,
2013-02-06 17:27:00,67.2,64.8,29.78,NE,49,16.0,19.0,92,0.00,,---,0.43,VWS V14.00,2013-02-06 23:27:00,
2013-02-06 17:32:00,67.1,64.7,29.78,ENE,74,14.0,18.0,92,0.00,,---,0.43,VWS V14.00,2013-02-06 23:32:00,
2013-02-06 17:37:00,67.1,64.7,29.79,ENE,70,13.0,15.0,92,0.00,,---,0.43,VWS V14.00,2013-02-06 23:37:00,
2013-02-06 17:42:00,67.1,64.7,29.79,ENE,69,10.0,12.0,92,0.00,,---,0.43,VWS V14.00,2013-02-06 23:42:00,
2013-02-06 17:47:00,67.1,64.7,29.79,ENE,58,14.0,15.0,92,0.00,,---,0.43,VWS V14.00,2013-02-06 23:47:00,
2013-02-06 17:52:00,67.2,65.1,29.79,ENE,71,15.0,15.0,93,0.00,,---,0.43,VWS V14.00,2013-02-06 23:52:00,
2013-02-06 17:57:00,67.1,65.0,29.79,ENE,66,19.0,19.0,93,0.00,,---,0.43,VWS V14.00,2013-02-06 23:57:00,
2013-02-06 18:02:00,67.1,64.7,29.80,ENE,64,10.0,13.0,92,0.00,,---,0.43,VWS V14.00,2013-02-07 00:02:00,
2013-02-06 18:07:00,67.0,64.6,29.80,NE,56,17.0,18.0,92,0.00,,---,0.43,VWS V14.00,2013-02-07 00:07:00,
2013-02-06 18:12:00,66.9,64.5,29.80,ENE,65,15.0,20.0,92,0.00,,---,0.43,VWS V14.00,2013-02-07 00:12:00,
2013-02-06 18:17:00,66.9,64.5,29.80,ENE,61,12.0,17.0,92,0.00,,---,0.43,VWS V14.00,2013-02-07 00:17:00,
2013-02-06 18:22:00,66.8,64.4,29.80,ENE,67,19.0,19.0,92,0.00,,---,0.43,VWS V14.00,2013-02-07 00:22:00,
2013-02-06 18:27:00,66.7,64.6,29.80,ENE,67,19.0,23.0,93,0.00,,---,0.43,VWS V14.00,2013-02-07 00:27:00,
2013-02-06 18:32:00,66.1,63.4,29.81,ENE,61,21.0,25.0,91,0.00,,---,0.43,VWS V14.00,2013-02-07 00:32:00,
2013-02-06 18:37:00,65.9,63.2,29.80,ENE,68,19.0,20.0,91,0.00,,---,0.43,VWS V14.00,2013-02-07 00:37:00,
2013-02-06 18:42:00,65.8,63.1,29.81,ENE,66,20.0,20.0,91,0.00,,---,0.43,VWS V14.00,2013-02-07 00:42:00,
2013-02-06 18:47:00,65.6,62.9,29.81,NE,51,15.0,22.0,91,0.00,,---,0.43,VWS V14.00,2013-02-07 00:47:00,
2013-02-06 18:52:00,65.5,63.1,29.81,ENE,67,14.0,18.0,92,0.00,,---,0.43,VWS V14.00,2013-02-07 00:52:00,
2013-02-06 18:57:00,65.3,62.9,29.81,ENE,65,17.0,18.0,92,0.00,,---,0.43,VWS V14.00,2013-02-07 00:57:00,
2013-02-06 19:02:00,65.2,62.8,29.81,ENE,69,19.0,22.0,92,0.00,,---,0.43,VWS V14.00,2013-02-07 01:02:00,
2013-02-06 19:07:00,65.1,62.7,29.81,East,82,18.0,18.0,92,0.00,,---,0.43,VWS V14.00,2013-02-07 01:07:00,
2013-02-06 19:12:00,65.0,62.6,29.82,ENE,70,17.0,17.0,92,0.00,,---,0.43,VWS V14.00,2013-02-07 01:12:00,
2013-02-06 19:17:00,64.9,62.5,29.82,ENE,63,14.0,14.0,92,0.00,,---,0.43,VWS V14.00,2013-02-07 01:17:00,
2013-02-06 19:22:00,64.8,62.4,29.82,ENE,67,12.0,17.0,92,0.00,,---,0.43,VWS V14.00,2013-02-07 01:22:00,
2013-02-06 19:27:00,64.7,62.6,29.82,ENE,70,12.0,17.0,93,0.00,,---,0.43,VWS V14.00,2013-02-07 01:27:00,
2013-02-06 19:32:00,64.5,62.4,29.82,ENE,73,11.0,14.0,93,0.00,,---,0.43,VWS V14.00,2013-02-07 01:32:00,
2013-02-06 19:37:00,64.3,62.2,29.82,ENE,66,11.0,14.0,93,0.00,,---,0.43,VWS V14.00,2013-02-07 01:37:00,
2013-02-06 19:42:00,64.1,62.0,29.82,ENE,76,15.0,15.0,93,0.00,,---,0.43,VWS V14.00,2013-02-07 01:42:00,
2013-02-06 19:47:00,64.1,62.0,29.82,ENE,63,13.0,17.0,93,0.00,,---,0.43,VWS V14.00,2013-02-07 01:47:00,
2013-02-06 19:52:00,64.0,61.9,29.82,ENE,70,15.0,15.0,93,0.00,,---,0.43,VWS V14.00,2013-02-07 01:52:00,
2013-02-06 19:57:00,63.9,61.8,29.82,ENE,66,19.0,19.0,93,0.00,,---,0.43,VWS V14.00,2013-02-07 01:57:00,
2013-02-06 20:02:00,63.8,61.7,29.82,ENE,76,15.0,19.0,93,0.00,,---,0.43,VWS V14.00,2013-02-07 02:02:00,
2013-02-06 20:07:00,63.7,61.6,29.82,ENE,57,13.0,14.0,93,0.00,,---,0.43,VWS V14.00,2013-02-07 02:07:00,
2013-02-06 20:12:00,63.6,61.5,29.83,ENE,64,10.0,13.0,93,0.00,,---,0.43,VWS V14.00,2013-02-07 02:12:00,
2013-02-06 20:17:00,63.5,61.8,29.83,ENE,62,14.0,18.0,94,0.00,,---,0.43,VWS V14.00,2013-02-07 02:17:00,
2013-02-06 20:22:00,63.5,61.8,29.83,ENE,75,11.0,18.0,94,0.00,,---,0.43,VWS V14.00,2013-02-07 02:22:00,
2013-02-06 20:27:00,63.4,61.7,29.83,ENE,75,14.0,18.0,94,0.00,,---,0.43,VWS V14.00,2013-02-07 02:27:00,
2013-02-06 20:32:00,63.3,61.5,29.84,East,80,14.0,14.0,94,0.00,,---,0.43,VWS V14.00,2013-02-07 02:32:00,
2013-02-06 20:37:00,63.3,61.5,29.84,ENE,73,13.0,15.0,94,0.00,,---,0.43,VWS V14.00,2013-02-07 02:37:00,
2013-02-06 20:42:00,63.2,61.5,29.84,ENE,75,8.0,15.0,94,0.00,,---,0.43,VWS V14.00,2013-02-07 02:42:00,
2013-02-06 20:47:00,63.1,61.3,29.83,ENE,69,11.0,14.0,94,0.00,,---,0.43,VWS V14.00,2013-02-07 02:47:00,
2013-02-06 20:52:00,63.1,61.3,29.83,ENE,66,12.0,18.0,94,0.00,,---,0.43,VWS V14.00,2013-02-07 02:52:00,
2013-02-06 20:57:00,63.1,61.3,29.83,ENE,66,14.0,19.0,94,0.00,,---,0.43,VWS V14.00,2013-02-07 02:57:00,
2013-02-06 21:02:00,63.0,61.2,29.83,ENE,73,15.0,15.0,94,0.00,,---,0.43,VWS V14.00,2013-02-07 03:02:00,
2013-02-06 21:07:00,62.9,61.2,29.83,ENE,69,13.0,15.0,94,0.00,,---,0.43,VWS V14.00,2013-02-07 03:07:00,
2013-02-06 21:12:00,62.8,61.0,29.83,ENE,67,17.0,17.0,94,0.00,,---,0.43,VWS V14.00,2013-02-07 03:12:00,
2013-02-06 21:17:00,62.7,61.0,29.83,ENE,69,13.0,17.0,94,0.00,,---,0.43,VWS V14.00,2013-02-07 03:17:00,
2013-02-06 21:22:00,62.8,61.0,29.83,ENE,67,17.0,21.0,94,0.00,,---,0.43,VWS V14.00,2013-02-07 03:22:00,
2013-02-06 21:27:00,62.8,61.0,29.83,ENE,71,19.0,21.0,94,0.00,,---,0.43,VWS V14.00,2013-02-07 03:27:00,
2013-02-06 21:32:00,62.7,61.0,29.83,ENE,71,15.0,20.0,94,0.00,,---,0.43,VWS V14.00,2013-02-07 03:32:00,
2013-02-06 21:37:00,62.7,61.0,29.83,ENE,70,13.0,18.0,94,0.00,,---,0.43,VWS V14.00,2013-02-07 03:37:00,
2013-02-06 21:42:00,62.7,61.0,29.83,ENE,70,13.0,17.0,94,0.00,,---,0.43,VWS V14.00,2013-02-07 03:42:00,
2013-02-06 21:47:00,62.6,60.8,29.83,ENE,76,11.0,15.0,94,0.00,,---,0.43,VWS V14.00,2013-02-07 03:47:00,
2013-02-06 21:52:00,62.5,60.8,29.84,ENE,71,11.0,15.0,94,0.00,,---,0.43,VWS V14.00,2013-02-07 03:52:00,
2013-02-06 21:57:00,62.5,60.8,29.84,ENE,71,12.0,14.0,94,0.00,,---,0.43,VWS V14.00,2013-02-07 03:57:00,
2013-02-06 22:02:00,62.4,60.7,29.84,ENE,73,10.0,13.0,94,0.00,,---,0.43,VWS V14.00,2013-02-07 04:02:00,
2013-02-06 22:07:00,62.4,60.7,29.84,ENE,71,11.0,14.0,94,0.00,,---,0.43,VWS V14.00,2013-02-07 04:07:00,
2013-02-06 22:12:00,62.3,60.6,29.84,ENE,67,11.0,14.0,94,0.00,,---,0.43,VWS V14.00,2013-02-07 04:12:00,
2013-02-06 22:17:00,62.2,60.5,29.85,ENE,74,11.0,13.0,94,0.00,,---,0.43,VWS V14.00,2013-02-07 04:17:00,
2013-02-06 22:22:00,62.1,60.4,29.84,ENE,76,13.0,15.0,94,0.00,,---,0.43,VWS V14.00,2013-02-07 04:22:00,
2013-02-06 22:27:00,62.1,60.4,29.84,ENE,74,12.0,14.0,94,0.00,,---,0.43,VWS V14.00,2013-02-07 04:27:00,
2013-02-06 22:32:00,62.0,60.3,29.84,ENE,71,11.0,11.0,94,0.00,,---,0.43,VWS V14.00,2013-02-07 04:32:00,
2013-02-06 22:37:00,62.0,60.3,29.84,ENE,74,11.0,13.0,94,0.00,,---,0.43,VWS V14.00,2013-02-07 04:37:00,
2013-02-06 22:42:00,62.0,60.3,29.84,ENE,76,13.0,15.0,94,0.00,,---,0.43,VWS V14.00,2013-02-07 04:42:00,
2013-02-06 22:47:00,61.9,60.2,29.84,ENE,68,12.0,17.0,94,0.00,,---,0.43,VWS V14.00,2013-02-07 04:47:00,
2013-02-06 22:52:00,61.9,60.2,29.84,ENE,70,12.0,14.0,94,0.00,,---,0.43,VWS V14.00,2013-02-07 04:52:00,
2013-02-06 22:57:00,61.9,60.2,29.85,ENE,70,10.0,12.0,94,0.00,,---,0.43,VWS V14.00,2013-02-07 04:57:00,
2013-02-06 23:00:00,61.8,59.8,29.85,ENE,72,8.0,11.0,93,0.00,,---,0.43,VWS V14.00,2013-02-07 05:00:00,
2013-02-06 23:01:00,61.7,59.7,29.85,ENE,72,8.0,12.0,93,0.00,,---,0.43,VWS V14.00,2013-02-07 05:01:00,
2013-02-06 23:06:00,61.7,60.0,29.85,ENE,74,11.0,11.0,94,0.00,,---,0.43,VWS V14.00,2013-02-07 05:06:00,
2013-02-06 23:11:00,61.7,60.0,29.85,ENE,71,10.0,11.0,94,0.00,,---,0.43,VWS V14.00,2013-02-07 05:11:00,
2013-02-06 23:16:00,61.6,59.9,29.85,ENE,70,8.0,12.0,94,0.00,,---,0.43,VWS V14.00,2013-02-07 05:16:00,
2013-02-06 23:21:00,61.6,59.9,29.85,ENE,69,10.0,11.0,94,0.00,,---,0.43,VWS V14.00,2013-02-07 05:21:00,
2013-02-06 23:26:00,61.5,59.8,29.85,ENE,71,10.0,10.0,94,0.00,,---,0.43,VWS V14.00,2013-02-07 05:26:00,
2013-02-06 23:31:00,61.5,59.8,29.85,ENE,71,6.0,10.0,94,0.00,,---,0.43,VWS V14.00,2013-02-07 05:31:00,
2013-02-06 23:36:00,61.3,59.6,29.85,ENE,71,5.0,7.0,94,0.00,,---,0.43,VWS V14.00,2013-02-07 05:36:00,
2013-02-06 23:41:00,61.2,59.5,29.85,ENE,71,5.0,6.0,94,0.00,,---,0.43,VWS V14.00,2013-02-07 05:41:00,
2013-02-06 23:46:00,61.1,59.4,29.85,ENE,71,4.0,6.0,94,0.00,,---,0.43,VWS V14.00,2013-02-07 05:46:00,
2013-02-06 23:51:00,61.1,59.4,29.85,ENE,71,6.0,7.0,94,0.00,,---,0.43,VWS V14.00,2013-02-07 05:51:00,
2013-02-06 23:56:00,61.0,59.3,29.85,ENE,71,6.0,7.0,94,0.00,,---,0.43,VWS V14.00,2013-02-07 05:56:00,